Wind_Speed
14 16 18 20 22 24 26 28 29 30 32 33 35 37 38 38 38 38 38 37 36 35 35 34 33 32 31 31 31 30 29 28 27 25 23 21 19 18 17 17 17 19 22
11 13 14 16 18 21 23 24 26 28 30 32 34 37 39 41 42 42 42 42 41 41 40 39 38 37 35 34 34 33 33 32 31 30 28 25 23 21 19 18 17 18 19
11 12 14 16 18 20 21 23 24 26 27 29 32 34 36 39 41 43 44 45 45 45 44 43 42 41 40 39 38 37 36 35 34 34 32 30 28 25 23 21 19 19 19
13 15 17 18 20 21 23 24 26 28 29 30 32 33 35 37 38 40 42 44 45 47 47 47 47 46 45 44 43 41 40 39 38 37 36 35 32 30 27 25 23 22 20
16 17 19 21 23 25 27 28 30 31 33 34 35 36 37 38 40 41 42 43 44 46 47 49 49 50 49 48 47 46 44 43 42 41 40 39 37 35 32 30 27 25 24
19 21 24 26 28 31 33 35 36 38 39 40 41 42 43 44 45 45 45 46 46 46 47 48 50 51 52 52 51 50 49 48 46 45 44 43 41 40 37 35 32 29 27
24 26 29 32 35 37 39 42 44 45 47 48 49 50 51 52 52 52 52 52 52 51 50 50 50 51 53 53 54 54 53 52 51 49 48 47 45 44 42 40 37 34 32
29 32 35 38 40 43 46 48 51 53 55 57 58 59 59 60 60 60 60 60 59 58 57 55 54 53 53 54 55 56 56 56 54 53 52 51 49 48 47 45 42 39 36
34 37 40 43 47 50 53 56 59 61 64 65 67 68 68 69 69 68 68 68 66 65 64 62 60 59 57 56 57 57 58 58 58 56 55 54 52 51 51 49 47 44 41
39 42 46 49 52 56 59 62 66 69 71 73 75 76 77 77 77 76 75 74 73 72 70 68 67 65 64 62 60 59 59 60 60 59 58 57 56 54 54 54 51 48 46
44 47 50 54 57 61 64 68 71 74 77 79 80 82 83 83 83 83 82 81 79 77 75 73 71 70 69 67 66 64 62 62 62 62 61 59 58 57 57 57 56 53 50
47 51 54 58 62 66 69 72 75 77 80 82 84 85 86 87 88 88 88 86 85 83 81 78 75 73 72 71 71 69 67 65 63 63 63 62 61 59 59 59 59 57 54
51 55 59 63 67 71 74 77 80 81 83 85 87 88 89 91 92 92 92 92 91 88 86 83 81 78 76 75 74 74 72 70 68 66 65 65 64 62 61 60 61 60 58
56 60 64 68 73 76 79 81 83 84 86 88 91 93 95 96 97 96 96 95 94 93 90 87 85 83 80 78 78 77 76 74 72 70 68 67 67 65 63 62 62 62 61
60 64 68 73 77 79 81 82 84 87 91 95 97 98 97 97 95 93 92 90 90 90 89 87 87 85 84 82 81 80 80 78 76 74 71 69 69 69 67 65 63 63 62
63 68 73 76 79 80 82 85 89 92 96 97 94 91 87 84 82 80 79 79 79 80 81 81 82 82 82 83 83 84 84 83 81 78 76 73 71 71 71 69 67 65 63
67 72 75 78 80 82 85 89 93 95 93 89 83 79 76 73 71 69 68 68 69 70 71 73 75 77 78 80 82 85 86 86 85 83 80 78 75 73 73 73 71 69 66
71 75 77 79 82 85 89 92 92 89 85 80 76 74 72 71 69 68 66 64 64 64 66 67 69 71 73 77 80 84 86 88 89 87 85 83 80 77 76 75 75 74 71
74 77 79 81 84 87 90 90 86 81 78 76 74 73 71 69 67 65 63 62 61 61 62 64 67 68 70 72 76 81 85 89 91 92 90 87 84 81 79 78 78 78 76
77 78 80 83 85 87 87 83 78 75 74 74 72 70 68 65 62 60 59 58 57 57 59 61 63 66 69 70 72 76 82 88 92 94 94 92 89 86 82 79 79 79 79
78 80 82 84 86 86 83 78 74 72 72 72 70 67 63 59 57 55 54 52 52 52 54 56 59 63 67 69 70 71 76 83 89 94 96 95 93 90 86 82 80 80 79
79 81 83 85 86 83 79 75 73 73 72 69 65 60 57 54 52 50 48 47 47 47 49 52 55 57 62 67 70 70 71 76 83 89 95 98 96 94 90 85 82 81 79
79 81 83 85 83 79 76 74 73 71 68 63 57 53 51 50 50 49 48 46 44 44 44 46 49 52 56 62 68 71 71 72 76 82 90 96 98 97 94 90 85 84 81
80 81 84 83 79 76 75 74 73 69 64 58 52 49 50 51 51 50 49 48 46 44 42 42 43 47 51 56 63 69 72 71 72 76 83 91 97 99 97 93 89 85 82
80 82 83 80 76 75 75 74 72 67 61 53 50 50 51 53 54 53 52 50 49 46 43 41 41 42 46 51 57 64 71 72 72 72 76 84 93 98 100 97 93 87 83
80 81 81 77 74 74 75 73 70 64 57 51 51 53 54 56 56 56 54 52 51 48 45 42 40 40 41 46 52 58 66 72 73 71 71 76 86 94 100 100 98 93 89
Wind_Direction
283 283 283 283 282 281 280 279 277 275 274 273 272 271 271 270 269 266 262 258 256 254 253 252 251 251 250 250 249 249 250 249 248 246 244 241 236 228 222 221 223 225 224
296 294 291 289 288 286 284 282 280 278 276 274 272 271 270 270 270 269 266 263 260 257 254 253 252 251 250 250 249 248 247 247 246 245 242 239 237 231 225 222 221 224 224
313 308 304 301 298 296 294 293 291 289 287 283 280 277 275 273 272 270 269 266 263 260 257 254 252 251 250 249 249 248 247 245 244 244 242 239 236 232 228 224 221 222 224
321 319 317 314 312 310 308 306 304 302 299 296 292 289 285 282 279 276 274 271 267 264 260 257 253 251 250 249 248 247 246 245 243 242 241 239 236 233 229 226 222 221 222
335 331 328 324 321 318 314 311 308 305 302 300 297 295 292 289 286 283 280 277 273 269 265 261 257 253 250 248 248 247 245 244 242 241 240 239 237 234 231 228 225 223 222
335 330 325 321 317 313 310 307 304 302 299 297 295 293 291 289 287 285 283 280 277 274 270 266 262 258 254 250 247 246 244 243 242 240 239 238 237 236 233 231 228 226 225
327 322 319 315 312 309 306 304 301 299 297 296 294 292 290 288 286 284 282 280 278 275 272 269 266 263 258 254 250 246 244 242 241 240 239 237 236 236 235 233 231 229 228
320 317 314 311 308 306 304 302 301 299 297 295 293 291 290 288 286 284 282 279 277 274 272 270 267 265 262 258 254 250 246 243 241 240 239 237 235 235 235 235 233 231 229
315 313 311 310 308 306 305 303 301 298 297 295 293 292 290 289 287 285 282 280 277 274 271 269 266 264 261 259 257 253 249 246 242 240 239 238 236 234 234 234 234 232 230
314 313 311 309 308 306 304 302 300 299 297 295 294 292 290 289 287 285 282 279 277 274 271 267 264 262 260 258 256 254 251 248 244 241 239 238 236 234 234 234 234 233 231
313 312 310 308 307 305 303 302 300 299 297 295 293 291 289 287 285 283 281 279 276 273 270 266 263 260 257 255 254 252 251 249 246 243 240 238 237 235 234 234 233 233 231
313 311 310 308 306 305 304 302 301 299 297 295 293 290 288 286 284 282 280 277 275 272 269 266 262 258 255 252 251 249 248 247 246 244 241 238 236 234 233 234 233 233 231
312 311 310 309 307 306 305 303 302 300 298 295 293 291 288 285 283 280 278 276 273 271 268 265 262 258 254 250 247 246 245 245 244 243 241 239 236 234 233 233 233 233 232
313 313 312 311 310 308 307 305 303 301 298 296 294 292 289 287 285 283 280 277 274 271 268 264 261 257 254 249 245 243 242 242 241 240 239 238 236 234 233 232 233 233 233
316 316 315 313 312 310 308 306 304 303 301 299 297 295 293 291 289 286 283 279 276 272 269 265 262 258 253 249 245 241 239 238 238 238 237 237 236 234 232 231 231 232 233
318 317 316 315 313 312 310 308 307 305 303 302 301 299 297 294 290 286 282 278 274 270 267 264 260 256 252 248 244 240 237 235 235 235 234 234 234 233 231 230 230 230 231
319 319 317 316 315 314 313 311 309 308 307 306 305 303 300 297 293 289 284 279 274 269 264 260 257 253 249 245 241 239 235 233 232 232 232 231 231 231 230 229 228 229 229
322 321 320 319 318 317 315 313 312 312 312 310 309 306 304 301 298 293 288 283 276 270 264 258 254 250 246 242 238 235 233 231 229 229 229 228 228 228 228 228 227 227 228
324 324 323 321 320 318 317 316 316 316 315 313 311 309 307 304 300 296 291 285 279 273 266 260 253 248 244 241 236 233 231 229 228 227 227 226 226 226 226 226 226 227 227
327 326 324 322 321 319 319 319 319 318 316 315 313 311 309 306 302 298 294 288 281 275 268 262 255 249 244 239 236 233 230 228 226 225 225 225 224 224 224 224 225 226 227
329 327 325 323 322 321 321 321 320 318 317 316 315 314 312 310 307 304 299 293 286 279 272 265 258 251 245 240 236 233 230 228 226 224 224 223 222 222 221 222 223 224 226
330 327 325 324 324 324 323 323 322 321 321 320 319 318 316 315 313 310 306 300 293 285 277 269 262 254 247 241 236 232 230 229 227 224 223 222 221 220 219 219 220 221 224
329 327 326 326 326 326 325 325 324 324 323 322 322 320 319 318 316 314 310 305 299 291 283 275 266 258 250 243 237 232 229 228 228 225 223 222 220 219 218 217 218 219 222
330 328 328 328 328 328 327 326 326 326 325 325 324 323 322 320 318 316 312 308 302 296 288 281 272 262 253 245 239 233 228 226 226 227 224 222 220 219 217 216 216 218 219
331 330 330 330 330 329 329 328 329 328 328 327 326 324 322 320 317 314 311 307 303 297 290 284 277 267 256 247 239 234 228 225 224 224 225 223 220 219 217 215 214 215 217
332 332 332 331 331 331 330 330 331 330 329 327 326 324 322 319 315 312 309 305 301 296 290 283 278 271 261 250 240 234 229 225 223 222 223 224 221 219 217 215 214 213 214
Height
5875 5873 5873 5872 5871 5870 5868 5867 5866 5865 5864 5863 5862 5861 5859 5859 5858 5858 5858 5857 5857 5857 5856 5856 5855 5855 5855 5855 5855 5856 5856 5857 5857 5858 5859 5859 5860 5860 5861 5861 5862 5864 5865
5872 5871 5870 5868 5867 5866 5864 5862 5861 5859 5858 5857 5855 5854 5853 5852 5851 5850 5850 5850 5850 5850 5849 5849 5849 5849 5849 5849 5849 5850 5851 5851 5852 5853 5854 5855 5856 5857 5858 5858 5859 5860 5862
5870 5869 5868 5866 5865 5863 5861 5859 5857 5855 5853 5852 5850 5848 5846 5845 5843 5842 5841 5841 5840 5841 5841 5841 5842 5842 5842 5842 5843 5843 5844 5845 5846 5847 5849 5850 5852 5853 5854 5855 5856 5857 5858
5869 5868 5866 5864 5862 5860 5858 5856 5854 5851 5849 5847 5844 5842 5840 5838 5836 5834 5833 5832 5831 5831 5831 5831 5832 5833 5833 5834 5835 5835 5836 5838 5839 5840 5842 5844 5846 5848 5850 5851 5852 5853 5855
5868 5866 5864 5862 5859 5857 5854 5852 5849 5846 5844 5841 5838 5836 5833 5831 5828 5826 5824 5823 5822 5821 5820 5820 5821 5822 5823 5824 5825 5827 5828 5829 5831 5833 5835 5837 5840 5842 5844 5846 5847 5849 5851
5865 5863 5860 5858 5855 5852 5849 5846 5843 5840 5837 5834 5831 5828 5825 5822 5820 5817 5815 5813 5812 5811 5810 5810 5810 5811 5812 5813 5815 5816 5818 5820 5821 5824 5826 5829 5832 5835 5838 5840 5842 5844 5846
5862 5859 5856 5852 5849 5845 5842 5838 5834 5831 5827 5824 5820 5817 5814 5811 5809 5806 5804 5802 5801 5799 5799 5798 5798 5799 5800 5801 5803 5805 5807 5809 5811 5814 5817 5820 5824 5826 5830 5832 5835 5838 5840
5857 5854 5850 5846 5842 5838 5834 5829 5824 5820 5816 5811 5807 5804 5801 5798 5794 5792 5790 5788 5787 5786 5785 5786 5786 5786 5787 5788 5790 5792 5795 5797 5801 5804 5807 5810 5814 5817 5821 5824 5827 5830 5833
5852 5848 5844 5839 5834 5828 5823 5818 5812 5807 5802 5796 5792 5788 5784 5780 5777 5774 5772 5770 5770 5769 5769 5770 5771 5772 5773 5774 5776 5778 5781 5785 5789 5792 5796 5800 5804 5808 5811 5814 5818 5822 5826
5846 5841 5836 5830 5824 5818 5812 5806 5799 5792 5786 5780 5775 5770 5765 5760 5757 5754 5751 5749 5748 5749 5750 5752 5753 5754 5756 5758 5761 5763 5767 5770 5775 5780 5784 5788 5793 5797 5801 5804 5808 5812 5817
5838 5833 5827 5821 5815 5808 5801 5794 5786 5778 5771 5763 5757 5752 5746 5740 5735 5732 5728 5726 5725 5726 5728 5729 5731 5734 5737 5740 5743 5747 5751 5755 5760 5766 5771 5775 5780 5785 5790 5793 5797 5802 5806
5832 5826 5819 5812 5805 5797 5788 5780 5771 5762 5753 5744 5737 5730 5724 5718 5712 5707 5703 5700 5700 5701 5702 5704 5707 5711 5715 5719 5723 5728 5733 5738 5744 5750 5756 5761 5766 5772 5777 5781 5786 5791 5795
5824 5817 5809 5801 5792 5782 5772 5763 5753 5743 5733 5723 5714 5706 5699 5692 5685 5680 5676 5673 5672 5674 5675 5678 5681 5685 5690 5696 5701 5706 5713 5720 5726 5732 5739 5745 5752 5758 5764 5769 5774 5779 5784
5815 5807 5797 5787 5776 5765 5754 5743 5732 5721 5710 5699 5689 5680 5671 5663 5656 5651 5646 5643 5642 5644 5646 5648 5652 5658 5664 5670 5677 5684 5691 5699 5706 5714 5722 5729 5737 5744 5750 5756 5762 5767 5773
5804 5794 5783 5772 5760 5748 5736 5723 5710 5698 5685 5672 5660 5649 5640 5632 5626 5620 5615 5611 5611 5612 5614 5617 5621 5628 5635 5642 5651 5659 5668 5676 5685 5694 5704 5711 5720 5728 5736 5742 5749 5755 5761
5792 5782 5770 5757 5743 5730 5716 5702 5688 5674 5659 5645 5632 5621 5611 5603 5597 5591 5586 5583 5581 5581 5582 5585 5590 5597 5604 5613 5622 5632 5642 5652 5663 5673 5684 5693 5702 5711 5719 5727 5734 5742 5748
5780 5768 5755 5741 5726 5711 5696 5680 5664 5649 5634 5620 5608 5597 5587 5579 5573 5567 5562 5558 5556 5555 5555 5557 5560 5567 5574 5583 5593 5603 5615 5628 5640 5650 5661 5672 5682 5692 5701 5710 5719 5727 5734
5767 5754 5739 5723 5708 5692 5676 5659 5642 5626 5612 5599 5587 5577 5567 5558 5550 5544 5539 5535 5533 5531 5530 5532 5535 5540 5547 5554 5564 5575 5587 5601 5614 5626 5638 5649 5661 5672 5682 5692 5701 5710 5719
5753 5738 5722 5707 5692 5675 5658 5640 5623 5608 5594 5581 5569 5558 5548 5538 5529 5522 5517 5513 5510 5508 5507 5508 5511 5516 5522 5529 5537 5548 5560 5573 5587 5600 5613 5626 5639 5652 5663 5674 5683 5693 5702
5737 5722 5707 5692 5676 5660 5642 5625 5609 5594 5579 5566 5553 5541 5530 5520 5511 5504 5498 5493 5489 5487 5486 5486 5488 5493 5499 5506 5514 5524 5534 5546 5559 5573 5588 5602 5616 5630 5643 5654 5665 5675 5685
5722 5707 5692 5677 5661 5644 5628 5613 5599 5584 5569 5554 5539 5525 5514 5504 5495 5487 5481 5475 5471 5468 5466 5465 5467 5471 5476 5483 5492 5502 5512 5521 5532 5547 5563 5577 5593 5609 5623 5636 5647 5658 5668
5710 5694 5678 5662 5645 5628 5612 5597 5582 5568 5553 5538 5524 5511 5500 5491 5482 5474 5467 5460 5455 5451 5448 5446 5447 5450 5455 5460 5469 5480 5491 5501 5510 5524 5537 5552 5570 5586 5602 5616 5629 5640 5651
5698 5681 5664 5647 5630 5613 5598 5584 5569 5555 5540 5526 5514 5502 5491 5481 5472 5463 5455 5448 5442 5437 5433 5430 5429 5430 5435 5440 5447 5458 5470 5480 5491 5502 5513 5529 5546 5562 5580 5596 5610 5623 5635
5685 5668 5650 5632 5615 5600 5585 5570 5555 5541 5528 5515 5503 5492 5481 5470 5461 5452 5444 5436 5429 5424 5419 5416 5413 5413 5416 5421 5427 5436 5448 5460 5470 5482 5493 5507 5522 5540 5558 5576 5592 5606 5619
5673 5655 5637 5619 5603 5588 5572 5557 5542 5527 5514 5503 5492 5482 5471 5460 5449 5439 5430 5422 5415 5410 5405 5401 5398 5397 5398 5402 5408 5416 5427 5440 5451 5462 5474 5486 5501 5518 5537 5556 5573 5589 5602
5662 5644 5626 5609 5593 5577 5561 5545 5530 5516 5504 5493 5483 5472 5461 5449 5437 5425 5416 5407 5400 5394 5390 5386 5384 5382 5382 5384 5390 5397 5407 5420 5433 5445 5458 5467 5481 5497 5516 5535 5554 5570 5584